Location: Camaret
(48.2753°N, 4.5961°W)
Time: 00:05:59
(UTC+00:00)

Cosmos 2058 - Pass Details

Date: 29 October 2020
Orbit: 562 x 584 km, 82.5° (Epoch: 26 November)

Event Time Altitude Azimuth Distance (km) Brightness Sun altitude
Rises 17:28:44 0° 4° (N) 2,767 6.2 -4.8°
Reaches altitude 10° 17:31:33 10° 24° (NNE) 1,865 5.2 -5.3°
Maximum altitude 17:34:19 17° 67° (ENE) 1,451 4.3 -5.7°
Drops below altitude 10° 17:37:04 10° 109° (ESE) 1,857 5.0 -6.2°
Sets 17:39:52 0° 130° (SE) 2,750 6.0 -6.6°
